COSMOS 1057

Satellite information

Favourite Embed

Satellite Type and Status

PAYLOADIN ORBIT

Key statistics

Satellite COSMOS 1057 at a glance.

Uptime

17018

Days in orbit

Revolutions

≈ 12.4

Per day

Orbit

LEO

Low Earth Orbit

Inclination

74.0

Latest

Satellite identification and parameters

Extended collection of information and parameters for COSMOS 1057.

Object identification

Identified? True

Debris? False

Object name: COSMOS 1057

International designator: 1978-109G

Object number (NORAD): 11134

Object ID (CCSDS): 11134

Country: COMMONWEALTH OF INDEPENDENT STATES (CIS)

Current information (Y/N): Y

RCS size: MEDIUM

Orbital parameters

Period: 115.93 minutes

Inclination: 74.0173 deg

SMA: 7875.747 km

Apoapsis: 1515.182 km

Periapsis: 1480.043 km

RAAN: 19.371 deg

Eccentricy: 0.0022308

Argument of periapsis: 257.1982 deg

Mean anomaly: 212.101 deg

Mean motion: 12.42124427 rev/day

Mean motion (dot): -0.00000002 rev/day2

B* drag term: 0.000101 1/REarth

Two-line elements (TLE)

Creation date: July 9, 2025, 2:22 a.m.

Reference frame: TEME

Reference center: EARTH

Epoch: July 8, 2025, 9:34 p.m. UTC

TLE line 0: 0 COSMOS 1057

TLE line 1: 1 11134U 78109G 25189.89884196 -.00000002 00000-0 10100-3 0 9991

TLE line 2: 2 11134 74.0173 19.3710 0022308 257.1982 212.1010 12.42124427112611

Live tracking on map

Real-time ground track for satellite COSMOS 1057.

In-orbit conjunctions

A list of the most updated potential collisions computed for object COSMOS 1057.

Target Orbit TCA Probability of collision Miss distance Type
COSMOS 736 LEO 2024-06-06 17:10:46 0.02241838 51.0 (m) PAYLOAD

Associated space launch

Military communications satellites

COSMOS 1057 was lifted into orbit during the mission ‘Kosmos-3M | Strela-1M 161-168’, on board a Kosmos-3M space rocket.

The launch took place on Dec. 5, 1978, 6:12 p.m. from 132/2.

For more information about the launch, click the button.

Launch to space Kosmos-3M | Strela-1M 161-168
Kosmos-3M | Strela-1M 161-168

Agency: N/A

Status: Launch Successful

Launch date: Dec. 5, 1978, 6:12 p.m. UTC

Rocket: Kosmos-3M

Launch pad: 132/2

Location: Plesetsk Cosmodrome, Russian Federation

...

Latest news about this satellite

There are no fresh news available about this satellite. Check back as we update our databases every day.


Newsletter sign-up

Weekly statistics, charts and insights to help you stay on top of the space industry.